STARLINK-37606, 69845

Orbit data source: Space-Track

STARLINK-37606, 69845 is a payload satellite owned by SpaceX/Seattle (US) in LEO that was launched on Sun, 05 Jul 2026 UTC via an FALCON 9 launch vehicle from the Air Force Eastern Test Range (AFETR). Payload-class satellites include a variety of spacecraft equipped with specific instruments for various scientific and technological missions. These include communications satellites like Starlink; space stations such as the ISS; scientific satellites like the Hubble; Earth observation satellites from companies like Planet Labs, Umbra, and HawkEye 360; GPS; miniature CubeSats for education and research; and military/defense satellites.

Loading next visibility...
Identifier
69845, 2026-154AC
Orbit
LEO
Country
Flag of USUS
Related business
Manufacturer
SpaceX/Seattle
Mission
Operational spacecraft
Bus & Motor
STARLINK V2MO, Unknown motor
Mass
575 kg wet, ~530 kg dry
Launch date (UTC)
2026-07-05 (2 months ago)
Launch vehicle
FALCON 9
Launch site
Air Force Eastern Test Range (AFETR)
Object type
Payload
Rocket body
Debris
Shape & HBR
BOX + PAN, 17.7 m
Radar Cross Section
Large (>1 m²)

Expand to show TLE details & history
Last TLE update: 7 hours ago

TLE from 7 hours ago
0 STARLINK-37606
1 69845U 26154AC  26236.58336806  .00054990  00000-0  16284-2 0  9998
2 69845  53.1601  97.3869 0001096  91.4567  54.6507 15.34368404  6023
Epoch: 2026-08-24T14:00Z
TLE epoch observation values (Epoch: 2026-08-24T14:00:03.000Z)
Latitude
26.57517°
Longitude
72.63039°
Altitude
463.552 km
Speed
7.639 km/s
True Right ascension
17h 02m 01s
True Declination
26° 25' 55"
Sunlit
Object was in daylight at epoch
Visualization orbit readout
Latitude
Unknown
Longitude
Unknown
Altitude
Unknown
Speed
Unknown
Apparent Right ascension
Unknown
Apparent Declination
Unknown
Sunlit
N/A
Visualization observer readout
Local Sidereal Time
12:09:43
Azimuth
Unknown
Elevation
Unknown
Doppler factor
Unknown
Orbital elements
Apogee altitude
463.804 km
Perigee altitude
462.304 km
Semi-major axis
6,841.191 km
Eccentricity
0.00011
Inclination
53.1601°
RAAN
97.3869°
Arg. of periapsis
91.4567°
True anomaly
54.66094°
Mean anomaly
54.6507°
Eccentric anomaly
54.65582°
Mean motion
3.83571 °/min
Orbital period
93.85 mins
BSTAR
0.0016284
Loading maneuver chart data...
Computing Atmospheric mass density...
Loading historical data...
Loading historical data...
Loading historical data...
Loading historical data...
Loading historical data...
Loading historical data...
Loading historical data...

Documentation

Showing up to 5 results
|